Index of /20260414/WXO-DD/model_gdps/15km/12/165
Name Last modified Size Description
Parent Directory -
20260414T12Z_MSC_GDPS_AirTemp_AGL-120m_LatLon0.15_PT165H.grib2 2026-04-14 16:38 908K
20260414T12Z_MSC_GDPS_AirTemp_AGL-2m_LatLon0.15_PT165H.grib2 2026-04-14 16:38 1.0M
20260414T12Z_MSC_GDPS_AirTemp_AGL-40m_LatLon0.15_PT165H.grib2 2026-04-14 16:38 807K
20260414T12Z_MSC_GDPS_AirTemp_AGL-80m_LatLon0.15_PT165H.grib2 2026-04-14 16:38 916K
20260414T12Z_MSC_GDPS_AirTemp_IsbL-0001_LatLon0.15_PT165H.grib2 2026-04-14 16:38 701K
20260414T12Z_MSC_GDPS_AirTemp_IsbL-0005_LatLon0.15_PT165H.grib2 2026-04-14 16:39 748K
20260414T12Z_MSC_GDPS_AirTemp_IsbL-0010_LatLon0.15_PT165H.grib2 2026-04-14 16:38 755K
20260414T12Z_MSC_GDPS_AirTemp_IsbL-0020_LatLon0.15_PT165H.grib2 2026-04-14 16:38 698K
20260414T12Z_MSC_GDPS_AirTemp_IsbL-0030_LatLon0.15_PT165H.grib2 2026-04-14 16:38 752K
20260414T12Z_MSC_GDPS_AirTemp_IsbL-0050_LatLon0.15_PT165H.grib2 2026-04-14 16:38 814K
20260414T12Z_MSC_GDPS_AirTemp_IsbL-0100_LatLon0.15_PT165H.grib2 2026-04-14 16:38 964K
20260414T12Z_MSC_GDPS_AirTemp_IsbL-0150_LatLon0.15_PT165H.grib2 2026-04-14 16:39 1.0M
20260414T12Z_MSC_GDPS_AirTemp_IsbL-0175_LatLon0.15_PT165H.grib2 2026-04-14 16:38 972K
20260414T12Z_MSC_GDPS_AirTemp_IsbL-0200_LatLon0.15_PT165H.grib2 2026-04-14 16:38 1.0M
20260414T12Z_MSC_GDPS_AirTemp_IsbL-0225_LatLon0.15_PT165H.grib2 2026-04-14 16:38 972K
20260414T12Z_MSC_GDPS_AirTemp_IsbL-0250_LatLon0.15_PT165H.grib2 2026-04-14 16:38 1.0M
20260414T12Z_MSC_GDPS_AirTemp_IsbL-0275_LatLon0.15_PT165H.grib2 2026-04-14 16:38 1.0M
20260414T12Z_MSC_GDPS_AirTemp_IsbL-0300_LatLon0.15_PT165H.grib2 2026-04-14 16:38 1.0M
20260414T12Z_MSC_GDPS_AirTemp_IsbL-0350_LatLon0.15_PT165H.grib2 2026-04-14 16:38 930K
20260414T12Z_MSC_GDPS_AirTemp_IsbL-0400_LatLon0.15_PT165H.grib2 2026-04-14 16:39 942K
20260414T12Z_MSC_GDPS_AirTemp_IsbL-0450_LatLon0.15_PT165H.grib2 2026-04-14 16:38 961K
20260414T12Z_MSC_GDPS_AirTemp_IsbL-0500_LatLon0.15_PT165H.grib2 2026-04-14 16:38 1.0M
20260414T12Z_MSC_GDPS_AirTemp_IsbL-0550_LatLon0.15_PT165H.grib2 2026-04-14 16:38 798K
20260414T12Z_MSC_GDPS_AirTemp_IsbL-0600_LatLon0.15_PT165H.grib2 2026-04-14 16:39 892K
20260414T12Z_MSC_GDPS_AirTemp_IsbL-0650_LatLon0.15_PT165H.grib2 2026-04-14 16:38 921K
20260414T12Z_MSC_GDPS_AirTemp_IsbL-0700_LatLon0.15_PT165H.grib2 2026-04-14 16:38 957K
20260414T12Z_MSC_GDPS_AirTemp_IsbL-0750_LatLon0.15_PT165H.grib2 2026-04-14 16:38 1.0M
20260414T12Z_MSC_GDPS_AirTemp_IsbL-0800_LatLon0.15_PT165H.grib2 2026-04-14 16:38 1.1M
20260414T12Z_MSC_GDPS_AirTemp_IsbL-0850_LatLon0.15_PT165H.grib2 2026-04-14 16:38 1.1M
20260414T12Z_MSC_GDPS_AirTemp_IsbL-0875_LatLon0.15_PT165H.grib2 2026-04-14 16:38 1.2M
20260414T12Z_MSC_GDPS_AirTemp_IsbL-0900_LatLon0.15_PT165H.grib2 2026-04-14 16:39 1.1M
20260414T12Z_MSC_GDPS_AirTemp_IsbL-0925_LatLon0.15_PT165H.grib2 2026-04-14 16:38 1.1M
20260414T12Z_MSC_GDPS_AirTemp_IsbL-0950_LatLon0.15_PT165H.grib2 2026-04-14 16:38 1.1M
20260414T12Z_MSC_GDPS_AirTemp_IsbL-0970_LatLon0.15_PT165H.grib2 2026-04-14 16:38 1.1M
20260414T12Z_MSC_GDPS_AirTemp_IsbL-0985_LatLon0.15_PT165H.grib2 2026-04-14 16:38 1.1M
20260414T12Z_MSC_GDPS_AirTemp_IsbL-1000_LatLon0.15_PT165H.grib2 2026-04-14 16:38 1.1M
20260414T12Z_MSC_GDPS_AirTemp_IsbL-1015_LatLon0.15_PT165H.grib2 2026-04-14 16:38 1.1M
20260414T12Z_MSC_GDPS_Albedo_Sfc_LatLon0.15_PT165H.grib2 2026-04-14 16:38 246K
20260414T12Z_MSC_GDPS_CAPE_Sfc_LatLon0.15_PT165H.grib2 2026-04-14 16:39 3.8M
20260414T12Z_MSC_GDPS_CIN_Sfc_LatLon0.15_PT165H.grib2 2026-04-14 16:38 2.9M
20260414T12Z_MSC_GDPS_ConvectivePrecip-Accum_Sfc_LatLon0.15_PT165H.grib2 2026-04-14 16:38 3.7M
20260414T12Z_MSC_GDPS_DewPointDepression_AGL-2m_LatLon0.15_PT165H.grib2 2026-04-14 16:38 752K
20260414T12Z_MSC_GDPS_DewPointDepression_IsbL-0010_LatLon0.15_PT165H.grib2 2026-04-14 16:38 23K
20260414T12Z_MSC_GDPS_DewPointDepression_IsbL-0020_LatLon0.15_PT165H.grib2 2026-04-14 16:38 59K
20260414T12Z_MSC_GDPS_DewPointDepression_IsbL-0030_LatLon0.15_PT165H.grib2 2026-04-14 16:38 72K
20260414T12Z_MSC_GDPS_DewPointDepression_IsbL-0050_LatLon0.15_PT165H.grib2 2026-04-14 16:38 355K
20260414T12Z_MSC_GDPS_DewPointDepression_IsbL-0100_LatLon0.15_PT165H.grib2 2026-04-14 16:38 377K
20260414T12Z_MSC_GDPS_DewPointDepression_IsbL-0150_LatLon0.15_PT165H.grib2 2026-04-14 16:39 467K
20260414T12Z_MSC_GDPS_DewPointDepression_IsbL-0175_LatLon0.15_PT165H.grib2 2026-04-14 16:38 539K
20260414T12Z_MSC_GDPS_DewPointDepression_IsbL-0200_LatLon0.15_PT165H.grib2 2026-04-14 16:38 638K
20260414T12Z_MSC_GDPS_DewPointDepression_IsbL-0225_LatLon0.15_PT165H.grib2 2026-04-14 16:38 759K
20260414T12Z_MSC_GDPS_DewPointDepression_IsbL-0250_LatLon0.15_PT165H.grib2 2026-04-14 16:38 851K
20260414T12Z_MSC_GDPS_DewPointDepression_IsbL-0275_LatLon0.15_PT165H.grib2 2026-04-14 16:38 872K
20260414T12Z_MSC_GDPS_DewPointDepression_IsbL-0300_LatLon0.15_PT165H.grib2 2026-04-14 16:39 919K
20260414T12Z_MSC_GDPS_DewPointDepression_IsbL-0350_LatLon0.15_PT165H.grib2 2026-04-14 16:38 953K
20260414T12Z_MSC_GDPS_DewPointDepression_IsbL-0400_LatLon0.15_PT165H.grib2 2026-04-14 16:39 1.0M
20260414T12Z_MSC_GDPS_DewPointDepression_IsbL-0450_LatLon0.15_PT165H.grib2 2026-04-14 16:38 1.0M
20260414T12Z_MSC_GDPS_DewPointDepression_IsbL-0500_LatLon0.15_PT165H.grib2 2026-04-14 16:38 1.0M
20260414T12Z_MSC_GDPS_DewPointDepression_IsbL-0550_LatLon0.15_PT165H.grib2 2026-04-14 16:38 1.0M
20260414T12Z_MSC_GDPS_DewPointDepression_IsbL-0600_LatLon0.15_PT165H.grib2 2026-04-14 16:39 1.1M
20260414T12Z_MSC_GDPS_DewPointDepression_IsbL-0650_LatLon0.15_PT165H.grib2 2026-04-14 16:38 1.1M
20260414T12Z_MSC_GDPS_DewPointDepression_IsbL-0700_LatLon0.15_PT165H.grib2 2026-04-14 16:38 1.1M
20260414T12Z_MSC_GDPS_DewPointDepression_IsbL-0750_LatLon0.15_PT165H.grib2 2026-04-14 16:38 1.1M
20260414T12Z_MSC_GDPS_DewPointDepression_IsbL-0800_LatLon0.15_PT165H.grib2 2026-04-14 16:38 1.2M
20260414T12Z_MSC_GDPS_DewPointDepression_IsbL-0850_LatLon0.15_PT165H.grib2 2026-04-14 16:38 1.1M
20260414T12Z_MSC_GDPS_DewPointDepression_IsbL-0875_LatLon0.15_PT165H.grib2 2026-04-14 16:38 1.1M
20260414T12Z_MSC_GDPS_DewPointDepression_IsbL-0900_LatLon0.15_PT165H.grib2 2026-04-14 16:38 1.1M
20260414T12Z_MSC_GDPS_DewPointDepression_IsbL-0925_LatLon0.15_PT165H.grib2 2026-04-14 16:38 1.0M
20260414T12Z_MSC_GDPS_DewPointDepression_IsbL-0950_LatLon0.15_PT165H.grib2 2026-04-14 16:38 1.0M
20260414T12Z_MSC_GDPS_DewPointDepression_IsbL-0970_LatLon0.15_PT165H.grib2 2026-04-14 16:38 1.0M
20260414T12Z_MSC_GDPS_DewPointDepression_IsbL-0985_LatLon0.15_PT165H.grib2 2026-04-14 16:38 1.0M
20260414T12Z_MSC_GDPS_DewPointDepression_IsbL-1000_LatLon0.15_PT165H.grib2 2026-04-14 16:38 972K
20260414T12Z_MSC_GDPS_DewPointDepression_IsbL-1015_LatLon0.15_PT165H.grib2 2026-04-14 16:39 907K
20260414T12Z_MSC_GDPS_DewPoint_AGL-2m_LatLon0.15_PT165H.grib2 2026-04-14 16:39 614K
20260414T12Z_MSC_GDPS_DownwardLongwaveRadiationFlux-Accum_Sfc_LatLon0.15_PT165H.grib2 2026-04-14 16:38 631K
20260414T12Z_MSC_GDPS_DownwardShortwaveRadiationFlux-Accum_Sfc_LatLon0.15_PT165H.grib2 2026-04-14 16:38 835K
20260414T12Z_MSC_GDPS_FreezingRain-Accum3h_Sfc_LatLon0.15_PT165H.grib2 2026-04-14 16:39 48K
20260414T12Z_MSC_GDPS_FreezingRain-Accum_Sfc_LatLon0.15_PT165H.grib2 2026-04-14 16:38 350K
20260414T12Z_MSC_GDPS_GeopotentialHeight_IsbL-0001_LatLon0.15_PT165H.grib2 2026-04-14 16:39 388K
20260414T12Z_MSC_GDPS_GeopotentialHeight_IsbL-0005_LatLon0.15_PT165H.grib2 2026-04-14 16:38 493K
20260414T12Z_MSC_GDPS_GeopotentialHeight_IsbL-0010_LatLon0.15_PT165H.grib2 2026-04-14 16:38 427K
20260414T12Z_MSC_GDPS_GeopotentialHeight_IsbL-0020_LatLon0.15_PT165H.grib2 2026-04-14 16:39 571K
20260414T12Z_MSC_GDPS_GeopotentialHeight_IsbL-0030_LatLon0.15_PT165H.grib2 2026-04-14 16:38 581K
20260414T12Z_MSC_GDPS_GeopotentialHeight_IsbL-0050_LatLon0.15_PT165H.grib2 2026-04-14 16:38 584K
20260414T12Z_MSC_GDPS_GeopotentialHeight_IsbL-0100_LatLon0.15_PT165H.grib2 2026-04-14 16:38 621K
20260414T12Z_MSC_GDPS_GeopotentialHeight_IsbL-0150_LatLon0.15_PT165H.grib2 2026-04-14 16:39 637K
20260414T12Z_MSC_GDPS_GeopotentialHeight_IsbL-0175_LatLon0.15_PT165H.grib2 2026-04-14 16:38 642K
20260414T12Z_MSC_GDPS_GeopotentialHeight_IsbL-0200_LatLon0.15_PT165H.grib2 2026-04-14 16:38 646K
20260414T12Z_MSC_GDPS_GeopotentialHeight_IsbL-0225_LatLon0.15_PT165H.grib2 2026-04-14 16:38 648K
20260414T12Z_MSC_GDPS_GeopotentialHeight_IsbL-0250_LatLon0.15_PT165H.grib2 2026-04-14 16:38 651K
20260414T12Z_MSC_GDPS_GeopotentialHeight_IsbL-0275_LatLon0.15_PT165H.grib2 2026-04-14 16:38 649K
20260414T12Z_MSC_GDPS_GeopotentialHeight_IsbL-0300_LatLon0.15_PT165H.grib2 2026-04-14 16:38 640K
20260414T12Z_MSC_GDPS_GeopotentialHeight_IsbL-0350_LatLon0.15_PT165H.grib2 2026-04-14 16:38 635K
20260414T12Z_MSC_GDPS_GeopotentialHeight_IsbL-0400_LatLon0.15_PT165H.grib2 2026-04-14 16:38 627K
20260414T12Z_MSC_GDPS_GeopotentialHeight_IsbL-0450_LatLon0.15_PT165H.grib2 2026-04-14 16:39 545K
20260414T12Z_MSC_GDPS_GeopotentialHeight_IsbL-0500_LatLon0.15_PT165H.grib2 2026-04-14 16:38 533K
20260414T12Z_MSC_GDPS_GeopotentialHeight_IsbL-0550_LatLon0.15_PT165H.grib2 2026-04-14 16:39 697K
20260414T12Z_MSC_GDPS_GeopotentialHeight_IsbL-0600_LatLon0.15_PT165H.grib2 2026-04-14 16:38 688K
20260414T12Z_MSC_GDPS_GeopotentialHeight_IsbL-0650_LatLon0.15_PT165H.grib2 2026-04-14 16:38 688K
20260414T12Z_MSC_GDPS_GeopotentialHeight_IsbL-0700_LatLon0.15_PT165H.grib2 2026-04-14 16:38 684K
20260414T12Z_MSC_GDPS_GeopotentialHeight_IsbL-0750_LatLon0.15_PT165H.grib2 2026-04-14 16:39 693K
20260414T12Z_MSC_GDPS_GeopotentialHeight_IsbL-0800_LatLon0.15_PT165H.grib2 2026-04-14 16:38 703K
20260414T12Z_MSC_GDPS_GeopotentialHeight_IsbL-0850_LatLon0.15_PT165H.grib2 2026-04-14 16:38 709K
20260414T12Z_MSC_GDPS_GeopotentialHeight_IsbL-0875_LatLon0.15_PT165H.grib2 2026-04-14 16:38 714K
20260414T12Z_MSC_GDPS_GeopotentialHeight_IsbL-0900_LatLon0.15_PT165H.grib2 2026-04-14 16:38 724K
20260414T12Z_MSC_GDPS_GeopotentialHeight_IsbL-0925_LatLon0.15_PT165H.grib2 2026-04-14 16:39 733K
20260414T12Z_MSC_GDPS_GeopotentialHeight_IsbL-0950_LatLon0.15_PT165H.grib2 2026-04-14 16:38 737K
20260414T12Z_MSC_GDPS_GeopotentialHeight_IsbL-0970_LatLon0.15_PT165H.grib2 2026-04-14 16:38 750K
20260414T12Z_MSC_GDPS_GeopotentialHeight_IsbL-0985_LatLon0.15_PT165H.grib2 2026-04-14 16:38 766K
20260414T12Z_MSC_GDPS_GeopotentialHeight_IsbL-1000_LatLon0.15_PT165H.grib2 2026-04-14 16:38 787K
20260414T12Z_MSC_GDPS_GeopotentialHeight_IsbL-1015_LatLon0.15_PT165H.grib2 2026-04-14 16:38 810K
20260414T12Z_MSC_GDPS_Humidex_Sfc_LatLon0.15_PT165H.grib2 2026-04-14 16:38 5.3M
20260414T12Z_MSC_GDPS_IcePellets-Accum3h_Sfc_LatLon0.15_PT165H.grib2 2026-04-14 16:38 9.6K
20260414T12Z_MSC_GDPS_IcePellets-Accum_Sfc_LatLon0.15_PT165H.grib2 2026-04-14 16:38 219K
20260414T12Z_MSC_GDPS_KIndex_Sfc_LatLon0.15_PT165H.grib2 2026-04-14 16:38 6.5M
20260414T12Z_MSC_GDPS_LatentHeatNetFlux_Sfc_LatLon0.15_PT165H.grib2 2026-04-14 16:38 543K
20260414T12Z_MSC_GDPS_LiftedIndex-MU-VT_IsbL-0500_LatLon0.15_PT165H.grib2 2026-04-14 16:38 5.4M
20260414T12Z_MSC_GDPS_NetLongwaveRadiationFlux-Accum_Sfc_LatLon0.15_PT165H.grib2 2026-04-14 16:38 1.1M
20260414T12Z_MSC_GDPS_NetShortwaveRadiationFlux-Accum_Sfc_LatLon0.15_PT165H.grib2 2026-04-14 16:38 1.1M
20260414T12Z_MSC_GDPS_O3MixingRatio_LatLon0.15_PT165H.grib2 2026-04-14 16:57 1.9M
20260414T12Z_MSC_GDPS_O3_EAtm_LatLon0.15_PT165H.grib2 2026-04-14 16:57 2.1M
20260414T12Z_MSC_GDPS_PlanetaryBoundaryLayerHeight_Sfc_LatLon0.15_PT165H.grib2 2026-04-14 16:39 2.5M
20260414T12Z_MSC_GDPS_Precip-Accum3h_Sfc_LatLon0.15_PT165H.grib2 2026-04-14 16:38 3.4M
20260414T12Z_MSC_GDPS_Precip-Accum_Sfc_LatLon0.15_PT165H.grib2 2026-04-14 16:38 5.3M
20260414T12Z_MSC_GDPS_PrecipRate_Sfc_LatLon0.15_PT165H.grib2 2026-04-14 16:38 3.0M
20260414T12Z_MSC_GDPS_PrecipType-Instant_Sfc_LatLon0.15_PT165H.grib2 2026-04-14 16:38 1.5M
20260414T12Z_MSC_GDPS_Pressure_MSL_LatLon0.15_PT165H.grib2 2026-04-14 16:38 721K
20260414T12Z_MSC_GDPS_Pressure_PVU-1.5_LatLon0.15_PT165H.grib2 2026-04-14 16:38 5.8M
20260414T12Z_MSC_GDPS_Pressure_PVU-1_LatLon0.15_PT165H.grib2 2026-04-14 16:38 6.0M
20260414T12Z_MSC_GDPS_Pressure_PVU-2_LatLon0.15_PT165H.grib2 2026-04-14 16:38 5.6M
20260414T12Z_MSC_GDPS_Pressure_Sfc_LatLon0.15_PT165H.grib2 2026-04-14 16:39 1.1M
20260414T12Z_MSC_GDPS_RadiativeTemp_Sfc_LatLon0.15_PT165H.grib2 2026-04-14 16:38 502K
20260414T12Z_MSC_GDPS_Rain-Accum3h_Sfc_LatLon0.15_PT165H.grib2 2026-04-14 16:38 1.8M
20260414T12Z_MSC_GDPS_Rain-Accum_Sfc_LatLon0.15_PT165H.grib2 2026-04-14 16:38 4.0M
20260414T12Z_MSC_GDPS_RelativeHumidity_AGL-2m_LatLon0.15_PT165H.grib2 2026-04-14 16:38 1.1M
20260414T12Z_MSC_GDPS_RelativeHumidity_IsbL-0010_LatLon0.15_PT165H.grib2 2026-04-14 16:38 243K
20260414T12Z_MSC_GDPS_RelativeHumidity_IsbL-0020_LatLon0.15_PT165H.grib2 2026-04-14 16:38 357K
20260414T12Z_MSC_GDPS_RelativeHumidity_IsbL-0030_LatLon0.15_PT165H.grib2 2026-04-14 16:38 414K
20260414T12Z_MSC_GDPS_RelativeHumidity_IsbL-0050_LatLon0.15_PT165H.grib2 2026-04-14 16:38 409K
20260414T12Z_MSC_GDPS_RelativeHumidity_IsbL-0100_LatLon0.15_PT165H.grib2 2026-04-14 16:38 483K
20260414T12Z_MSC_GDPS_RelativeHumidity_IsbL-0150_LatLon0.15_PT165H.grib2 2026-04-14 16:38 654K
20260414T12Z_MSC_GDPS_RelativeHumidity_IsbL-0175_LatLon0.15_PT165H.grib2 2026-04-14 16:38 791K
20260414T12Z_MSC_GDPS_RelativeHumidity_IsbL-0200_LatLon0.15_PT165H.grib2 2026-04-14 16:38 701K
20260414T12Z_MSC_GDPS_RelativeHumidity_IsbL-0225_LatLon0.15_PT165H.grib2 2026-04-14 16:39 784K
20260414T12Z_MSC_GDPS_RelativeHumidity_IsbL-0250_LatLon0.15_PT165H.grib2 2026-04-14 16:38 865K
20260414T12Z_MSC_GDPS_RelativeHumidity_IsbL-0275_LatLon0.15_PT165H.grib2 2026-04-14 16:38 886K
20260414T12Z_MSC_GDPS_RelativeHumidity_IsbL-0300_LatLon0.15_PT165H.grib2 2026-04-14 16:38 932K
20260414T12Z_MSC_GDPS_RelativeHumidity_IsbL-0350_LatLon0.15_PT165H.grib2 2026-04-14 16:38 954K
20260414T12Z_MSC_GDPS_RelativeHumidity_IsbL-0400_LatLon0.15_PT165H.grib2 2026-04-14 16:38 1.0M
20260414T12Z_MSC_GDPS_RelativeHumidity_IsbL-0450_LatLon0.15_PT165H.grib2 2026-04-14 16:38 1.0M
20260414T12Z_MSC_GDPS_RelativeHumidity_IsbL-0500_LatLon0.15_PT165H.grib2 2026-04-14 16:38 1.0M
20260414T12Z_MSC_GDPS_RelativeHumidity_IsbL-0550_LatLon0.15_PT165H.grib2 2026-04-14 16:38 1.0M
20260414T12Z_MSC_GDPS_RelativeHumidity_IsbL-0600_LatLon0.15_PT165H.grib2 2026-04-14 16:39 1.0M
20260414T12Z_MSC_GDPS_RelativeHumidity_IsbL-0650_LatLon0.15_PT165H.grib2 2026-04-14 16:38 1.1M
20260414T12Z_MSC_GDPS_RelativeHumidity_IsbL-0700_LatLon0.15_PT165H.grib2 2026-04-14 16:38 1.1M
20260414T12Z_MSC_GDPS_RelativeHumidity_IsbL-0750_LatLon0.15_PT165H.grib2 2026-04-14 16:39 1.2M
20260414T12Z_MSC_GDPS_RelativeHumidity_IsbL-0800_LatLon0.15_PT165H.grib2 2026-04-14 16:38 1.2M
20260414T12Z_MSC_GDPS_RelativeHumidity_IsbL-0850_LatLon0.15_PT165H.grib2 2026-04-14 16:38 1.3M
20260414T12Z_MSC_GDPS_RelativeHumidity_IsbL-0875_LatLon0.15_PT165H.grib2 2026-04-14 16:38 1.2M
20260414T12Z_MSC_GDPS_RelativeHumidity_IsbL-0900_LatLon0.15_PT165H.grib2 2026-04-14 16:38 1.2M
20260414T12Z_MSC_GDPS_RelativeHumidity_IsbL-0925_LatLon0.15_PT165H.grib2 2026-04-14 16:38 1.2M
20260414T12Z_MSC_GDPS_RelativeHumidity_IsbL-0950_LatLon0.15_PT165H.grib2 2026-04-14 16:38 1.2M
20260414T12Z_MSC_GDPS_RelativeHumidity_IsbL-0970_LatLon0.15_PT165H.grib2 2026-04-14 16:38 1.2M
20260414T12Z_MSC_GDPS_RelativeHumidity_IsbL-0985_LatLon0.15_PT165H.grib2 2026-04-14 16:38 1.1M
20260414T12Z_MSC_GDPS_RelativeHumidity_IsbL-1000_LatLon0.15_PT165H.grib2 2026-04-14 16:38 1.1M
20260414T12Z_MSC_GDPS_RelativeHumidity_IsbL-1015_LatLon0.15_PT165H.grib2 2026-04-14 16:38 1.0M
20260414T12Z_MSC_GDPS_Runoff-Accum_Sfc_LatLon0.15_PT165H.grib2 2026-04-14 16:38 140K
20260414T12Z_MSC_GDPS_SensibleHeatNetFlux_Sfc_LatLon0.15_PT165H.grib2 2026-04-14 16:38 653K
20260414T12Z_MSC_GDPS_ShowalterIndex_IsbL-0500_LatLon0.15_PT165H.grib2 2026-04-14 16:39 6.2M
20260414T12Z_MSC_GDPS_Snow-Accum3h_Sfc_LatLon0.15_PT165H.grib2 2026-04-14 16:38 1.0M
20260414T12Z_MSC_GDPS_Snow-Accum_Sfc_LatLon0.15_PT165H.grib2 2026-04-14 16:38 2.0M
20260414T12Z_MSC_GDPS_SnowDepth_Sfc_LatLon0.15_PT165H.grib2 2026-04-14 16:38 1.8M
20260414T12Z_MSC_GDPS_SoilTemp_DBS-0to10cm_LatLon0.15_PT165H.grib2 2026-04-14 16:38 507K
20260414T12Z_MSC_GDPS_SoilTemp_Sfc_LatLon0.15_PT165H.grib2 2026-04-14 16:38 582K
20260414T12Z_MSC_GDPS_SoilVolumetricWaterContent_DBS-0to10cm_LatLon0.15_PT165H.grib2 2026-04-14 16:38 555K
20260414T12Z_MSC_GDPS_SoilVolumetricWaterContent_DBS-0to1cm_LatLon0.15_PT165H.grib2 2026-04-14 16:38 650K
20260414T12Z_MSC_GDPS_SpecificHumidity_AGL-120m_LatLon0.15_PT165H.grib2 2026-04-14 16:38 1.1M
20260414T12Z_MSC_GDPS_SpecificHumidity_AGL-2m_LatLon0.15_PT165H.grib2 2026-04-14 16:38 1.2M
20260414T12Z_MSC_GDPS_SpecificHumidity_AGL-40m_LatLon0.15_PT165H.grib2 2026-04-14 16:38 1.1M
20260414T12Z_MSC_GDPS_SpecificHumidity_AGL-80m_LatLon0.15_PT165H.grib2 2026-04-14 16:38 1.1M
20260414T12Z_MSC_GDPS_SpecificHumidity_IsbL-0001_LatLon0.15_PT165H.grib2 2026-04-14 16:38 1.1M
20260414T12Z_MSC_GDPS_SpecificHumidity_IsbL-0005_LatLon0.15_PT165H.grib2 2026-04-14 16:38 1.0M
20260414T12Z_MSC_GDPS_SpecificHumidity_IsbL-0010_LatLon0.15_PT165H.grib2 2026-04-14 16:38 1.2M
20260414T12Z_MSC_GDPS_SpecificHumidity_IsbL-0020_LatLon0.15_PT165H.grib2 2026-04-14 16:38 1.5M
20260414T12Z_MSC_GDPS_SpecificHumidity_IsbL-0030_LatLon0.15_PT165H.grib2 2026-04-14 16:38 1.5M
20260414T12Z_MSC_GDPS_SpecificHumidity_IsbL-0050_LatLon0.15_PT165H.grib2 2026-04-14 16:38 1.2M
20260414T12Z_MSC_GDPS_SpecificHumidity_IsbL-0100_LatLon0.15_PT165H.grib2 2026-04-14 16:39 1.3M
20260414T12Z_MSC_GDPS_SpecificHumidity_IsbL-0150_LatLon0.15_PT165H.grib2 2026-04-14 16:38 1.3M
20260414T12Z_MSC_GDPS_SpecificHumidity_IsbL-0175_LatLon0.15_PT165H.grib2 2026-04-14 16:38 1.3M
20260414T12Z_MSC_GDPS_SpecificHumidity_IsbL-0200_LatLon0.15_PT165H.grib2 2026-04-14 16:38 1.3M
20260414T12Z_MSC_GDPS_SpecificHumidity_IsbL-0225_LatLon0.15_PT165H.grib2 2026-04-14 16:38 1.3M
20260414T12Z_MSC_GDPS_SpecificHumidity_IsbL-0250_LatLon0.15_PT165H.grib2 2026-04-14 16:38 1.5M
20260414T12Z_MSC_GDPS_SpecificHumidity_IsbL-0275_LatLon0.15_PT165H.grib2 2026-04-14 16:38 1.3M
20260414T12Z_MSC_GDPS_SpecificHumidity_IsbL-0300_LatLon0.15_PT165H.grib2 2026-04-14 16:38 1.5M
20260414T12Z_MSC_GDPS_SpecificHumidity_IsbL-0350_LatLon0.15_PT165H.grib2 2026-04-14 16:39 1.5M
20260414T12Z_MSC_GDPS_SpecificHumidity_IsbL-0400_LatLon0.15_PT165H.grib2 2026-04-14 16:39 1.5M
20260414T12Z_MSC_GDPS_SpecificHumidity_IsbL-0450_LatLon0.15_PT165H.grib2 2026-04-14 16:38 1.6M
20260414T12Z_MSC_GDPS_SpecificHumidity_IsbL-0500_LatLon0.15_PT165H.grib2 2026-04-14 16:38 1.4M
20260414T12Z_MSC_GDPS_SpecificHumidity_IsbL-0550_LatLon0.15_PT165H.grib2 2026-04-14 16:38 1.6M
20260414T12Z_MSC_GDPS_SpecificHumidity_IsbL-0600_LatLon0.15_PT165H.grib2 2026-04-14 16:38 1.7M
20260414T12Z_MSC_GDPS_SpecificHumidity_IsbL-0650_LatLon0.15_PT165H.grib2 2026-04-14 16:39 1.5M
20260414T12Z_MSC_GDPS_SpecificHumidity_IsbL-0700_LatLon0.15_PT165H.grib2 2026-04-14 16:38 1.6M
20260414T12Z_MSC_GDPS_SpecificHumidity_IsbL-0750_LatLon0.15_PT165H.grib2 2026-04-14 16:38 1.7M
20260414T12Z_MSC_GDPS_SpecificHumidity_IsbL-0800_LatLon0.15_PT165H.grib2 2026-04-14 16:38 1.8M
20260414T12Z_MSC_GDPS_SpecificHumidity_IsbL-0850_LatLon0.15_PT165H.grib2 2026-04-14 16:38 1.9M
20260414T12Z_MSC_GDPS_SpecificHumidity_IsbL-0875_LatLon0.15_PT165H.grib2 2026-04-14 16:38 1.9M
20260414T12Z_MSC_GDPS_SpecificHumidity_IsbL-0900_LatLon0.15_PT165H.grib2 2026-04-14 16:38 1.9M
20260414T12Z_MSC_GDPS_SpecificHumidity_IsbL-0925_LatLon0.15_PT165H.grib2 2026-04-14 16:38 1.6M
20260414T12Z_MSC_GDPS_SpecificHumidity_IsbL-0950_LatLon0.15_PT165H.grib2 2026-04-14 16:38 1.5M
20260414T12Z_MSC_GDPS_SpecificHumidity_IsbL-0970_LatLon0.15_PT165H.grib2 2026-04-14 16:38 1.5M
20260414T12Z_MSC_GDPS_SpecificHumidity_IsbL-0985_LatLon0.15_PT165H.grib2 2026-04-14 16:39 1.5M
20260414T12Z_MSC_GDPS_SpecificHumidity_IsbL-1000_LatLon0.15_PT165H.grib2 2026-04-14 16:38 1.5M
20260414T12Z_MSC_GDPS_SpecificHumidity_IsbL-1015_LatLon0.15_PT165H.grib2 2026-04-14 16:38 1.4M
20260414T12Z_MSC_GDPS_SpecificHumidity_Sfc_LatLon0.15_PT165H.grib2 2026-04-14 16:39 673K
20260414T12Z_MSC_GDPS_Thickness_IsbL-0850to0700_LatLon0.15_PT165H.grib2 2026-04-14 16:38 468K
20260414T12Z_MSC_GDPS_Thickness_IsbL-1000to0500_LatLon0.15_PT165H.grib2 2026-04-14 16:38 376K
20260414T12Z_MSC_GDPS_Thickness_IsbL-1000to0850_LatLon0.15_PT165H.grib2 2026-04-14 16:38 493K
20260414T12Z_MSC_GDPS_TotalCloudCover_Sfc_LatLon0.15_PT165H.grib2 2026-04-14 16:38 812K
20260414T12Z_MSC_GDPS_TotalTotalsIndex_Sfc_LatLon0.15_PT165H.grib2 2026-04-14 16:38 6.2M
20260414T12Z_MSC_GDPS_UVIndex-ClearSky_Sfc_LatLon0.15_PT165H.grib2 2026-04-14 16:57 1.1M
20260414T12Z_MSC_GDPS_UVIndex_Sfc_LatLon0.15_PT165H.grib2 2026-04-14 16:57 1.4M
20260414T12Z_MSC_GDPS_UpwardLongwaveRadiationFlux_NTAtm_LatLon0.15_PT165H.grib2 2026-04-14 16:38 840K
20260414T12Z_MSC_GDPS_VerticalVelocity_IsbL-0500_LatLon0.15_PT165H.grib2 2026-04-14 16:38 1.1M
20260414T12Z_MSC_GDPS_VerticalVelocity_IsbL-0700_LatLon0.15_PT165H.grib2 2026-04-14 16:38 1.1M
20260414T12Z_MSC_GDPS_VerticalVelocity_IsbL-0850_LatLon0.15_PT165H.grib2 2026-04-14 16:38 1.3M
20260414T12Z_MSC_GDPS_WindChill_Sfc_LatLon0.15_PT165H.grib2 2026-04-14 16:38 5.3M
20260414T12Z_MSC_GDPS_WindDir_AGL-10m_LatLon0.15_PT165H.grib2 2026-04-14 16:38 1.3M
20260414T12Z_MSC_GDPS_WindDir_AGL-120m_LatLon0.15_PT165H.grib2 2026-04-14 16:38 1.4M
20260414T12Z_MSC_GDPS_WindDir_AGL-40m_LatLon0.15_PT165H.grib2 2026-04-14 16:38 1.4M
20260414T12Z_MSC_GDPS_WindDir_AGL-80m_LatLon0.15_PT165H.grib2 2026-04-14 16:38 1.4M
20260414T12Z_MSC_GDPS_WindDir_IsbL-0001_LatLon0.15_PT165H.grib2 2026-04-14 16:38 646K
20260414T12Z_MSC_GDPS_WindDir_IsbL-0005_LatLon0.15_PT165H.grib2 2026-04-14 16:38 808K
20260414T12Z_MSC_GDPS_WindDir_IsbL-0010_LatLon0.15_PT165H.grib2 2026-04-14 16:39 844K
20260414T12Z_MSC_GDPS_WindDir_IsbL-0020_LatLon0.15_PT165H.grib2 2026-04-14 16:38 936K
20260414T12Z_MSC_GDPS_WindDir_IsbL-0030_LatLon0.15_PT165H.grib2 2026-04-14 16:38 901K
20260414T12Z_MSC_GDPS_WindDir_IsbL-0050_LatLon0.15_PT165H.grib2 2026-04-14 16:38 947K
20260414T12Z_MSC_GDPS_WindDir_IsbL-0100_LatLon0.15_PT165H.grib2 2026-04-14 16:38 1.0M
20260414T12Z_MSC_GDPS_WindDir_IsbL-0150_LatLon0.15_PT165H.grib2 2026-04-14 16:38 1.0M
20260414T12Z_MSC_GDPS_WindDir_IsbL-0175_LatLon0.15_PT165H.grib2 2026-04-14 16:38 1.1M
20260414T12Z_MSC_GDPS_WindDir_IsbL-0200_LatLon0.15_PT165H.grib2 2026-04-14 16:38 1.1M
20260414T12Z_MSC_GDPS_WindDir_IsbL-0225_LatLon0.15_PT165H.grib2 2026-04-14 16:39 1.1M
20260414T12Z_MSC_GDPS_WindDir_IsbL-0250_LatLon0.15_PT165H.grib2 2026-04-14 16:38 1.1M
20260414T12Z_MSC_GDPS_WindDir_IsbL-0275_LatLon0.15_PT165H.grib2 2026-04-14 16:38 1.2M
20260414T12Z_MSC_GDPS_WindDir_IsbL-0300_LatLon0.15_PT165H.grib2 2026-04-14 16:38 1.1M
20260414T12Z_MSC_GDPS_WindDir_IsbL-0350_LatLon0.15_PT165H.grib2 2026-04-14 16:38 1.2M
20260414T12Z_MSC_GDPS_WindDir_IsbL-0400_LatLon0.15_PT165H.grib2 2026-04-14 16:38 1.2M
20260414T12Z_MSC_GDPS_WindDir_IsbL-0450_LatLon0.15_PT165H.grib2 2026-04-14 16:38 1.3M
20260414T12Z_MSC_GDPS_WindDir_IsbL-0500_LatLon0.15_PT165H.grib2 2026-04-14 16:38 1.3M
20260414T12Z_MSC_GDPS_WindDir_IsbL-0550_LatLon0.15_PT165H.grib2 2026-04-14 16:39 1.4M
20260414T12Z_MSC_GDPS_WindDir_IsbL-0600_LatLon0.15_PT165H.grib2 2026-04-14 16:38 1.4M
20260414T12Z_MSC_GDPS_WindDir_IsbL-0650_LatLon0.15_PT165H.grib2 2026-04-14 16:38 1.5M
20260414T12Z_MSC_GDPS_WindDir_IsbL-0700_LatLon0.15_PT165H.grib2 2026-04-14 16:38 1.6M
20260414T12Z_MSC_GDPS_WindDir_IsbL-0750_LatLon0.15_PT165H.grib2 2026-04-14 16:39 1.7M
20260414T12Z_MSC_GDPS_WindDir_IsbL-0800_LatLon0.15_PT165H.grib2 2026-04-14 16:38 1.8M
20260414T12Z_MSC_GDPS_WindDir_IsbL-0850_LatLon0.15_PT165H.grib2 2026-04-14 16:38 1.9M
20260414T12Z_MSC_GDPS_WindDir_IsbL-0875_LatLon0.15_PT165H.grib2 2026-04-14 16:38 2.0M
20260414T12Z_MSC_GDPS_WindDir_IsbL-0900_LatLon0.15_PT165H.grib2 2026-04-14 16:38 2.0M
20260414T12Z_MSC_GDPS_WindDir_IsbL-0925_LatLon0.15_PT165H.grib2 2026-04-14 16:38 2.0M
20260414T12Z_MSC_GDPS_WindDir_IsbL-0950_LatLon0.15_PT165H.grib2 2026-04-14 16:38 2.0M
20260414T12Z_MSC_GDPS_WindDir_IsbL-0970_LatLon0.15_PT165H.grib2 2026-04-14 16:38 2.0M
20260414T12Z_MSC_GDPS_WindDir_IsbL-0985_LatLon0.15_PT165H.grib2 2026-04-14 16:38 2.0M
20260414T12Z_MSC_GDPS_WindDir_IsbL-1000_LatLon0.15_PT165H.grib2 2026-04-14 16:38 2.1M
20260414T12Z_MSC_GDPS_WindDir_IsbL-1015_LatLon0.15_PT165H.grib2 2026-04-14 16:38 2.0M
20260414T12Z_MSC_GDPS_WindGust-Max_AGL-10m_LatLon0.15_PT165H.grib2 2026-04-14 16:39 1.8M
20260414T12Z_MSC_GDPS_WindGust-Min_AGL-10m_LatLon0.15_PT165H.grib2 2026-04-14 16:38 2.1M
20260414T12Z_MSC_GDPS_WindGust_AGL-10m_LatLon0.15_PT165H.grib2 2026-04-14 16:38 2.1M
20260414T12Z_MSC_GDPS_WindSpeed_AGL-10m_LatLon0.15_PT165H.grib2 2026-04-14 16:38 1.1M
20260414T12Z_MSC_GDPS_WindSpeed_AGL-120m_LatLon0.15_PT165H.grib2 2026-04-14 16:39 1.2M
20260414T12Z_MSC_GDPS_WindSpeed_AGL-40m_LatLon0.15_PT165H.grib2 2026-04-14 16:38 1.2M
20260414T12Z_MSC_GDPS_WindSpeed_AGL-80m_LatLon0.15_PT165H.grib2 2026-04-14 16:38 1.2M
20260414T12Z_MSC_GDPS_WindSpeed_IsbL-0001_LatLon0.15_PT165H.grib2 2026-04-14 16:38 632K
20260414T12Z_MSC_GDPS_WindSpeed_IsbL-0005_LatLon0.15_PT165H.grib2 2026-04-14 16:38 607K
20260414T12Z_MSC_GDPS_WindSpeed_IsbL-0010_LatLon0.15_PT165H.grib2 2026-04-14 16:38 622K
20260414T12Z_MSC_GDPS_WindSpeed_IsbL-0020_LatLon0.15_PT165H.grib2 2026-04-14 16:38 852K
20260414T12Z_MSC_GDPS_WindSpeed_IsbL-0030_LatLon0.15_PT165H.grib2 2026-04-14 16:39 848K
20260414T12Z_MSC_GDPS_WindSpeed_IsbL-0050_LatLon0.15_PT165H.grib2 2026-04-14 16:38 1.0M
20260414T12Z_MSC_GDPS_WindSpeed_IsbL-0100_LatLon0.15_PT165H.grib2 2026-04-14 16:38 1.1M
20260414T12Z_MSC_GDPS_WindSpeed_IsbL-0150_LatLon0.15_PT165H.grib2 2026-04-14 16:38 1.0M
20260414T12Z_MSC_GDPS_WindSpeed_IsbL-0175_LatLon0.15_PT165H.grib2 2026-04-14 16:38 1.0M
20260414T12Z_MSC_GDPS_WindSpeed_IsbL-0200_LatLon0.15_PT165H.grib2 2026-04-14 16:38 1.1M
20260414T12Z_MSC_GDPS_WindSpeed_IsbL-0225_LatLon0.15_PT165H.grib2 2026-04-14 16:38 1.1M
20260414T12Z_MSC_GDPS_WindSpeed_IsbL-0250_LatLon0.15_PT165H.grib2 2026-04-14 16:38 1.1M
20260414T12Z_MSC_GDPS_WindSpeed_IsbL-0275_LatLon0.15_PT165H.grib2 2026-04-14 16:38 1.1M
20260414T12Z_MSC_GDPS_WindSpeed_IsbL-0300_LatLon0.15_PT165H.grib2 2026-04-14 16:38 1.1M
20260414T12Z_MSC_GDPS_WindSpeed_IsbL-0350_LatLon0.15_PT165H.grib2 2026-04-14 16:38 1.1M
20260414T12Z_MSC_GDPS_WindSpeed_IsbL-0400_LatLon0.15_PT165H.grib2 2026-04-14 16:38 1.1M
20260414T12Z_MSC_GDPS_WindSpeed_IsbL-0450_LatLon0.15_PT165H.grib2 2026-04-14 16:38 1.1M
20260414T12Z_MSC_GDPS_WindSpeed_IsbL-0500_LatLon0.15_PT165H.grib2 2026-04-14 16:39 1.1M
20260414T12Z_MSC_GDPS_WindSpeed_IsbL-0550_LatLon0.15_PT165H.grib2 2026-04-14 16:38 1.1M
20260414T12Z_MSC_GDPS_WindSpeed_IsbL-0600_LatLon0.15_PT165H.grib2 2026-04-14 16:38 1.1M
20260414T12Z_MSC_GDPS_WindSpeed_IsbL-0650_LatLon0.15_PT165H.grib2 2026-04-14 16:38 1.4M
20260414T12Z_MSC_GDPS_WindSpeed_IsbL-0700_LatLon0.15_PT165H.grib2 2026-04-14 16:38 1.5M
20260414T12Z_MSC_GDPS_WindSpeed_IsbL-0750_LatLon0.15_PT165H.grib2 2026-04-14 16:38 1.5M
20260414T12Z_MSC_GDPS_WindSpeed_IsbL-0800_LatLon0.15_PT165H.grib2 2026-04-14 16:38 1.3M
20260414T12Z_MSC_GDPS_WindSpeed_IsbL-0850_LatLon0.15_PT165H.grib2 2026-04-14 16:38 1.7M
20260414T12Z_MSC_GDPS_WindSpeed_IsbL-0875_LatLon0.15_PT165H.grib2 2026-04-14 16:39 1.5M
20260414T12Z_MSC_GDPS_WindSpeed_IsbL-0900_LatLon0.15_PT165H.grib2 2026-04-14 16:39 1.5M
20260414T12Z_MSC_GDPS_WindSpeed_IsbL-0925_LatLon0.15_PT165H.grib2 2026-04-14 16:38 1.8M
20260414T12Z_MSC_GDPS_WindSpeed_IsbL-0950_LatLon0.15_PT165H.grib2 2026-04-14 16:38 1.8M
20260414T12Z_MSC_GDPS_WindSpeed_IsbL-0970_LatLon0.15_PT165H.grib2 2026-04-14 16:38 1.9M
20260414T12Z_MSC_GDPS_WindSpeed_IsbL-0985_LatLon0.15_PT165H.grib2 2026-04-14 16:38 1.9M
20260414T12Z_MSC_GDPS_WindSpeed_IsbL-1000_LatLon0.15_PT165H.grib2 2026-04-14 16:38 1.9M
20260414T12Z_MSC_GDPS_WindSpeed_IsbL-1015_LatLon0.15_PT165H.grib2 2026-04-14 16:38 1.8M
20260414T12Z_MSC_GDPS_WindU_AGL-10m_LatLon0.15_PT165H.grib2 2026-04-14 16:38 1.3M
20260414T12Z_MSC_GDPS_WindU_AGL-120m_LatLon0.15_PT165H.grib2 2026-04-14 16:38 1.0M
20260414T12Z_MSC_GDPS_WindU_AGL-40m_LatLon0.15_PT165H.grib2 2026-04-14 16:38 962K
20260414T12Z_MSC_GDPS_WindU_AGL-80m_LatLon0.15_PT165H.grib2 2026-04-14 16:38 1.0M
20260414T12Z_MSC_GDPS_WindU_IsbL-0001_LatLon0.15_PT165H.grib2 2026-04-14 16:38 637K
20260414T12Z_MSC_GDPS_WindU_IsbL-0005_LatLon0.15_PT165H.grib2 2026-04-14 16:38 685K
20260414T12Z_MSC_GDPS_WindU_IsbL-0010_LatLon0.15_PT165H.grib2 2026-04-14 16:38 696K
20260414T12Z_MSC_GDPS_WindU_IsbL-0020_LatLon0.15_PT165H.grib2 2026-04-14 16:39 730K
20260414T12Z_MSC_GDPS_WindU_IsbL-0030_LatLon0.15_PT165H.grib2 2026-04-14 16:38 731K
20260414T12Z_MSC_GDPS_WindU_IsbL-0050_LatLon0.15_PT165H.grib2 2026-04-14 16:38 700K
20260414T12Z_MSC_GDPS_WindU_IsbL-0100_LatLon0.15_PT165H.grib2 2026-04-14 16:38 862K
20260414T12Z_MSC_GDPS_WindU_IsbL-0150_LatLon0.15_PT165H.grib2 2026-04-14 16:38 1.0M
20260414T12Z_MSC_GDPS_WindU_IsbL-0175_LatLon0.15_PT165H.grib2 2026-04-14 16:38 1.0M
20260414T12Z_MSC_GDPS_WindU_IsbL-0200_LatLon0.15_PT165H.grib2 2026-04-14 16:38 846K
20260414T12Z_MSC_GDPS_WindU_IsbL-0225_LatLon0.15_PT165H.grib2 2026-04-14 16:38 853K
20260414T12Z_MSC_GDPS_WindU_IsbL-0250_LatLon0.15_PT165H.grib2 2026-04-14 16:39 851K
20260414T12Z_MSC_GDPS_WindU_IsbL-0275_LatLon0.15_PT165H.grib2 2026-04-14 16:38 878K
20260414T12Z_MSC_GDPS_WindU_IsbL-0300_LatLon0.15_PT165H.grib2 2026-04-14 16:38 867K
20260414T12Z_MSC_GDPS_WindU_IsbL-0350_LatLon0.15_PT165H.grib2 2026-04-14 16:39 883K
20260414T12Z_MSC_GDPS_WindU_IsbL-0400_LatLon0.15_PT165H.grib2 2026-04-14 16:38 885K
20260414T12Z_MSC_GDPS_WindU_IsbL-0450_LatLon0.15_PT165H.grib2 2026-04-14 16:38 1.1M
20260414T12Z_MSC_GDPS_WindU_IsbL-0500_LatLon0.15_PT165H.grib2 2026-04-14 16:38 1.1M
20260414T12Z_MSC_GDPS_WindU_IsbL-0550_LatLon0.15_PT165H.grib2 2026-04-14 16:39 1.1M
20260414T12Z_MSC_GDPS_WindU_IsbL-0600_LatLon0.15_PT165H.grib2 2026-04-14 16:38 1.1M
20260414T12Z_MSC_GDPS_WindU_IsbL-0650_LatLon0.15_PT165H.grib2 2026-04-14 16:38 1.2M
20260414T12Z_MSC_GDPS_WindU_IsbL-0700_LatLon0.15_PT165H.grib2 2026-04-14 16:38 1.2M
20260414T12Z_MSC_GDPS_WindU_IsbL-0750_LatLon0.15_PT165H.grib2 2026-04-14 16:38 1.3M
20260414T12Z_MSC_GDPS_WindU_IsbL-0800_LatLon0.15_PT165H.grib2 2026-04-14 16:38 1.3M
20260414T12Z_MSC_GDPS_WindU_IsbL-0850_LatLon0.15_PT165H.grib2 2026-04-14 16:38 1.4M
20260414T12Z_MSC_GDPS_WindU_IsbL-0875_LatLon0.15_PT165H.grib2 2026-04-14 16:38 1.4M
20260414T12Z_MSC_GDPS_WindU_IsbL-0900_LatLon0.15_PT165H.grib2 2026-04-14 16:38 1.4M
20260414T12Z_MSC_GDPS_WindU_IsbL-0925_LatLon0.15_PT165H.grib2 2026-04-14 16:38 1.4M
20260414T12Z_MSC_GDPS_WindU_IsbL-0950_LatLon0.15_PT165H.grib2 2026-04-14 16:38 1.4M
20260414T12Z_MSC_GDPS_WindU_IsbL-0970_LatLon0.15_PT165H.grib2 2026-04-14 16:38 1.4M
20260414T12Z_MSC_GDPS_WindU_IsbL-0985_LatLon0.15_PT165H.grib2 2026-04-14 16:38 1.4M
20260414T12Z_MSC_GDPS_WindU_IsbL-1000_LatLon0.15_PT165H.grib2 2026-04-14 16:38 1.4M
20260414T12Z_MSC_GDPS_WindU_IsbL-1015_LatLon0.15_PT165H.grib2 2026-04-14 16:38 1.3M
20260414T12Z_MSC_GDPS_WindV_AGL-10m_LatLon0.15_PT165H.grib2 2026-04-14 16:39 1.6M
20260414T12Z_MSC_GDPS_WindV_AGL-120m_LatLon0.15_PT165H.grib2 2026-04-14 16:39 964K
20260414T12Z_MSC_GDPS_WindV_AGL-40m_LatLon0.15_PT165H.grib2 2026-04-14 16:38 1.2M
20260414T12Z_MSC_GDPS_WindV_AGL-80m_LatLon0.15_PT165H.grib2 2026-04-14 16:38 966K
20260414T12Z_MSC_GDPS_WindV_IsbL-0001_LatLon0.15_PT165H.grib2 2026-04-14 16:38 541K
20260414T12Z_MSC_GDPS_WindV_IsbL-0005_LatLon0.15_PT165H.grib2 2026-04-14 16:38 773K
20260414T12Z_MSC_GDPS_WindV_IsbL-0010_LatLon0.15_PT165H.grib2 2026-04-14 16:38 873K
20260414T12Z_MSC_GDPS_WindV_IsbL-0020_LatLon0.15_PT165H.grib2 2026-04-14 16:38 851K
20260414T12Z_MSC_GDPS_WindV_IsbL-0030_LatLon0.15_PT165H.grib2 2026-04-14 16:38 850K
20260414T12Z_MSC_GDPS_WindV_IsbL-0050_LatLon0.15_PT165H.grib2 2026-04-14 16:38 1.0M
20260414T12Z_MSC_GDPS_WindV_IsbL-0100_LatLon0.15_PT165H.grib2 2026-04-14 16:38 1.1M
20260414T12Z_MSC_GDPS_WindV_IsbL-0150_LatLon0.15_PT165H.grib2 2026-04-14 16:38 1.0M
20260414T12Z_MSC_GDPS_WindV_IsbL-0175_LatLon0.15_PT165H.grib2 2026-04-14 16:38 1.0M
20260414T12Z_MSC_GDPS_WindV_IsbL-0200_LatLon0.15_PT165H.grib2 2026-04-14 16:38 846K
20260414T12Z_MSC_GDPS_WindV_IsbL-0225_LatLon0.15_PT165H.grib2 2026-04-14 16:39 911K
20260414T12Z_MSC_GDPS_WindV_IsbL-0250_LatLon0.15_PT165H.grib2 2026-04-14 16:39 909K
20260414T12Z_MSC_GDPS_WindV_IsbL-0275_LatLon0.15_PT165H.grib2 2026-04-14 16:38 933K
20260414T12Z_MSC_GDPS_WindV_IsbL-0300_LatLon0.15_PT165H.grib2 2026-04-14 16:38 921K
20260414T12Z_MSC_GDPS_WindV_IsbL-0350_LatLon0.15_PT165H.grib2 2026-04-14 16:38 931K
20260414T12Z_MSC_GDPS_WindV_IsbL-0400_LatLon0.15_PT165H.grib2 2026-04-14 16:38 934K
20260414T12Z_MSC_GDPS_WindV_IsbL-0450_LatLon0.15_PT165H.grib2 2026-04-14 16:38 934K
20260414T12Z_MSC_GDPS_WindV_IsbL-0500_LatLon0.15_PT165H.grib2 2026-04-14 16:38 877K
20260414T12Z_MSC_GDPS_WindV_IsbL-0550_LatLon0.15_PT165H.grib2 2026-04-14 16:38 881K
20260414T12Z_MSC_GDPS_WindV_IsbL-0600_LatLon0.15_PT165H.grib2 2026-04-14 16:38 1.1M
20260414T12Z_MSC_GDPS_WindV_IsbL-0650_LatLon0.15_PT165H.grib2 2026-04-14 16:38 1.2M
20260414T12Z_MSC_GDPS_WindV_IsbL-0700_LatLon0.15_PT165H.grib2 2026-04-14 16:38 1.2M
20260414T12Z_MSC_GDPS_WindV_IsbL-0750_LatLon0.15_PT165H.grib2 2026-04-14 16:38 1.2M
20260414T12Z_MSC_GDPS_WindV_IsbL-0800_LatLon0.15_PT165H.grib2 2026-04-14 16:39 1.3M
20260414T12Z_MSC_GDPS_WindV_IsbL-0850_LatLon0.15_PT165H.grib2 2026-04-14 16:38 1.4M
20260414T12Z_MSC_GDPS_WindV_IsbL-0875_LatLon0.15_PT165H.grib2 2026-04-14 16:38 1.4M
20260414T12Z_MSC_GDPS_WindV_IsbL-0900_LatLon0.15_PT165H.grib2 2026-04-14 16:39 1.4M
20260414T12Z_MSC_GDPS_WindV_IsbL-0925_LatLon0.15_PT165H.grib2 2026-04-14 16:38 1.4M
20260414T12Z_MSC_GDPS_WindV_IsbL-0950_LatLon0.15_PT165H.grib2 2026-04-14 16:38 1.4M
20260414T12Z_MSC_GDPS_WindV_IsbL-0970_LatLon0.15_PT165H.grib2 2026-04-14 16:38 1.4M
20260414T12Z_MSC_GDPS_WindV_IsbL-0985_LatLon0.15_PT165H.grib2 2026-04-14 16:38 1.4M
20260414T12Z_MSC_GDPS_WindV_IsbL-1000_LatLon0.15_PT165H.grib2 2026-04-14 16:38 1.7M
20260414T12Z_MSC_GDPS_WindV_IsbL-1015_LatLon0.15_PT165H.grib2 2026-04-14 16:38 1.6M